Regional Weather Roundup
Issued by NWS

Home | Current Version | Previous Version | Graphics & Text | Print | Product List | Glossary On
Versions: 1 2 3 4 5 6 7 8 9 10 11 12 13 14 15 16 17 18 19 20 21 22 23 24 25 26 27 28 29 30 31 32 33 34 35 36 37 38 39 40 41 42 43 44 45 46 47 48 49 50
000
ASUS45 KPSR 040300
RWRAZ

ARIZONA REGIONAL HOURLY WEATHER ROUNDUP
NATIONAL WEATHER SERVICE PHOENIX AZ
800 PM MST SUN MAY 03 2015

NOTE: FAIR INDICATES FEW OR NO CLOUDS BELOW 12,000 FEET WITH NO
SIGNIFICANT WEATHER AND/OR OBSTRUCTIONS TO VISIBILITY.

AZZ001>003-036-040400-
NORTHWEST ARIZONA

CITY           SKY/WX    TMP DP  RH WIND       PRES   REMARKS
KINGMAN        PTCLDY    69  35  28 S7        29.85R
$$

AZZ004>008-015-016-018-040400-
NORTH CENTRAL ARIZONA

CITY           SKY/WX    TMP DP  RH WIND       PRES   REMARKS
GRAND CANYON   MOCLDY    45  39  79 CALM      30.06F
WILLIAMS       PTCLDY    52  32  46 S3        30.11S
PRESCOTT       PTCLDY    65  34  31 SW7       29.95R
FLAGSTAFF      NOT AVBL
PAGE           PTCLDY    68  38  33 NW7       29.93R
$$

AZZ009>014-017-040400-
NORTHEAST ARIZONA

CITY           SKY/WX    TMP DP  RH WIND       PRES   REMARKS
WINSLOW        CLOUDY    66  39  37 E7        29.98R
SAINT JOHNS    MOCLDY    62  33  33 W9        29.99R
WINDOW ROCK    CLOUDY    54  40  59 E6        30.06R
$$

AZZ023-040400-
GREATER PHOENIX AREA

CITY           SKY/WX    TMP DP  RH WIND       PRES   REMARKS
PHOENIX        MOCLDY    88  39  17 W10       29.69R
DEER VALLEY    MOCLDY    85  40  20 W10       29.72R
SCOTTSDALE     PTCLDY    87  40  19 NW5       29.73R
MESA-FALCON    MOCLDY    84  41  21 W7        29.71R
MESA-GATEWAY   PTCLDY    86  43  22 SW14      29.74R
CHANDLER       MOCLDY    88  39  18 W15       29.70R
$$

AZZ027-028-040400-
SOUTHWEST MARICOPA COUNTY AND PINAL COUNTY

CITY           SKY/WX    TMP DP  RH WIND       PRES   REMARKS
CASA GRANDE    MOCLDY    82  45  26 W13       29.73R
$$

AZZ503-504-507>509-040400-
SOUTHEAST ARIZONA

CITY           SKY/WX    TMP DP  RH WIND       PRES   REMARKS
TUCSON         CLOUDY    83  36  18 VRB6      29.83R
RYAN FIELD       N/A     82  34  17 SW7       29.81R
NOGALES        PTCLDY    70  38  31 S6        29.91R
SIERRA VISTA   PTCLDY    72  36  26 W13       29.95R
SAFFORD        CLEAR     76  35  22 NW10      29.80R
$$

AZZ020-021-025-026-031-040400-
SOUTHWEST ARIZONA

CITY           SKY/WX    TMP DP  RH WIND       PRES   REMARKS
YUMA           CLEAR     82  52  35 S12       29.71R
$$

CAZ031-033-041-043-047-048-061-040400-
SOUTHERN CALIFORNIA

CITY           SKY/WX    TMP DP  RH WIND       PRES   REMARKS
DOWNTOWN L.A.  CLEAR     60  49  66 MISG      29.84F
L.A. AIRPORT   CLEAR     58  50  75 W17       29.86R
SAN DIEGO      MOCLDY    64  51  62 W8        29.89R
BURBANK        CLEAR     64  49  57 S6        29.83S
ONTARIO        CLEAR     63  50  62 SW9       29.84R
RIVERSIDE      CLEAR     66  51  58 W7        29.84R
PALM SPRINGS   CLEAR     87  31  13 NW18G24   29.70R
EL CENTRO NAS  CLEAR     81  52  36 SE12      29.69R
IMPERIAL       CLEAR     84  51  31 SE15      29.67R
BLYTHE         CLEAR     85  47  26 S13       29.69R
$$

NVZ020-UTZ003-040400-
SOUTHERN NEVADA-UTAH

CITY           SKY/WX    TMP DP  RH WIND       PRES   REMARKS
LAS VEGAS      NOT AVBL
SALT LAKE CITY MOCLDY    68  44  42 N12       29.85R
$$

NMZ009-TXZ055-040400-
NEW MEXICO-WEST TEXAS

CITY           SKY/WX    TMP DP  RH WIND       PRES   REMARKS
ALBUQUERQUE    PTCLDY    67  35  30 N12       29.98R
EL PASO        PTCLDY    81  32  17 NW6       29.86R
$$


........................KEY........................
SKY/WX - SKY CONDITION/WEATHER
TMP    - TEMPERATURE IN FAHRENHEIT
DP     - DEW POINT IN FAHRENHEIT
RH     - RELATIVE HUMIDITY IN PERCENT
WIND   - DIRECTION AND SPEED IN MILES PER HOUR (MPH)
VRB    - VARIABLE WIND DIRECTION
PRES   - MEAN SEA LEVEL PRESSURE IN INCHES OF MERCURY
         F - FALLING PRESSURE   R - RISING PRESSURE
         S - STEADY PRESSURE
VSB    - VISIBILITY IN MILES
HX     - HEAT INDEX IN FAHRENHEIT
WCI    - WIND CHILL INDEX IN FAHRENHEIT
TC     - TEMPERATURE IN CELSIUS WHICH IS ALSO KNOWN AS
         TEMPERATURE IN CENTIGRADE
AFB    - AIR FORCE BASE
         LUKE AFB IS LUKE AIR FORCE BASE
         DAVIS-MONTHAN IS DAVIS-MONTHAN AIR FORCE BASE
NAS    - NAVAL AIR STATION
         EL CENTRO NAS IS EL CENTRO NAVAL AIR STATION
N/A    - NOT AVAILABLE



USA.gov is the U.S. government's official web portal to all federal, state and local government web resources and services.